Regional Weather Roundup
Issued by NWS Upton, NY

Current Version | Previous Version | Text Only | Print | Product List | Glossary On
Versions: 1 2 3 4 5 6 7 8 9 10 11 12 13 14 15 16 17 18 19 20 21 22 23 24 25 26 27 28 29 30 31 32 33 34 35 36 37 38 39 40 41 42 43 44 45 46 47 48 49
000
ASUS41 KOKX 310804
RWROKX

REGIONAL WEATHER ROUNDUP
NATIONAL WEATHER SERVICE NEW YORK NY
400 AM EDT FRI JUL 31 2015

NOTE: "FAIR" INDICATES FEW OR NO CLOUDS BELOW 12,000 FEET WITH NO
SIGNIFICANT WEATHER AND/OR OBSTRUCTIONS TO VISIBILITY.

NYZ071-072-176-178-NJZ106-104-310900-
NEW YORK CITY METRO AREA


CITY           SKY/WX    TMP DP  RH WIND       PRES   REMARKS
CENTRAL PARK   PTCLDY    76  67  73 NW3       29.87R
LAGUARDIA APRT PTCLDY    76  66  71 NW8       29.83R
KENNEDY INTL   PTCLDY    76  68  76 NW8       29.84R
NEWARK/LIBERTY PTCLDY    76  65  68 NW8       29.84R
BRNX BOT. GARD   N/A     72  66  83 NW2       29.86R
TETERBORO      CLEAR     73  65  75 NW6       29.83S
$$

NYZ177-179-078>081-310900-
LONG ISLAND NEW YORK

CITY           SKY/WX    TMP DP  RH WIND       PRES   REMARKS
FARMINGDALE    CLEAR     74  71  91 NW5       29.83R
ISLIP          CLEAR     73  71  93 NW6       29.81R
SHIRLEY        MOCLDY    73  72  96 NW6       29.82S FOG
WESTHAMPTON    PTCLDY    72  72 100 W3        29.83R FOG
MONTAUK POINT    N/A     74  72  93 W6        29.81F
$$

NYZ052-065-067-310900-
HUDSON VALLEY

CITY           SKY/WX    TMP DP  RH WIND       PRES   REMARKS
WHITE PLAINS   PTCLDY    71  66  84 W7        29.84S
NEWBURGH       PTCLDY    66  64  94 W6        29.86S
MONTGOMERY     CLEAR     69  61  75 NW7       29.85S
POUGHKEEPSIE   CLEAR     66  64  93 CALM      29.83S
ALBANY         PTCLDY    69  60  73 W7        29.81F
$$

NJZ001-105-106-008-010-013-015-019>022-104-310900-
NEW JERSEY

CITY           SKY/WX    TMP DP  RH WIND       PRES   REMARKS
NEWARK/LIBERTY PTCLDY    76  65  68 NW8       29.84R
TETERBORO      CLEAR     73  65  75 NW6       29.83S
CALDWELL       CLEAR     70  66  87 CALM      29.86R
MORRISTOWN       N/A     66  63  88 CALM      29.85S FOG
SOMERVILLE     FOG       68  66  93 CALM      29.85R VSB 1/2
SUSSEX         FOG       63  61  93 CALM      29.87S VSB 1
ANDOVER          N/A     65  64  97 CALM      29.88S
TRENTON        CLEAR     71  67  87 NW6       29.86R
MILLVILLE      CLEAR     73  71  93 W7        29.88R
ATLANTIC CITY  CLEAR     73  71  93 W6        29.87R FOG
WRIGHTSTOWN    CLEAR     72  71  97 NW6       29.84R
TOMS RIVER       N/A     73  72  94 NW5       29.86R
BELMAR         CLEAR     72  66  83 NW5       29.85R
$$

PAZ047>061-062-071-310900-
EASTERN PENNSYLVANIA

CITY           SKY/WX    TMP DP  RH WIND       PRES   REMARKS
PHILADELPHIA   CLEAR     74  63  68 NW9       29.88R
ALLENTOWN      CLEAR     65  62  90 SW5       29.89S
SCRANTON       PTCLDY    63  58  83 S3        29.90F
$$

CTZ002-004>006-009-010-012-RIZ004-006-007-MAZ004-011-015-310900-
SOUTHERN NEW ENGLAND
 IN CT

CITY           SKY/WX    TMP DP  RH WIND       PRES   REMARKS
BRADLEY INTL   CLEAR     67  66  97 VRB3      29.80S
HARTFORD       FOG       71  70  96 CALM      29.80S VSB 1/4
DANBURY        CLEAR     68  65  90 CALM      29.85S
WTRBRY/OXFORD  MOCLDY    70  63  78 CALM      29.86S VSB 1/2
BRIDGEPORT     CLEAR     72  70  93 NW5       29.82R
MERIDEN        FOG       69  67  93 CALM      29.81S VSB 1/2
NEW HAVEN      CLEAR     73  72  96 NW3       29.82R
CHESTER        DRIZZLE   70  70 100 CALM      29.83R
GROTON         MOCLDY    72  71  97 CALM      29.80R FOG
WILLIMANTIC    FOG       71  70  96 CALM      29.81S VSB 1/4

 IN RI

CITY           SKY/WX    TMP DP  RH WIND       PRES   REMARKS
PROVIDENCE     PTCLDY    73  71  93 W5        29.79F
BLOCK ISLAND     N/A     72  70  94 W6        29.81S
WESTERLY       FOG       72  71  97 CALM      29.80F VSB 1/4

 IN MA

CITY           SKY/WX    TMP DP  RH WIND       PRES   REMARKS
BOSTON         PTCLDY    73  66  78 W7        29.77F
WORCESTER      CLEAR     67  65  93 W8        29.83S
WESTFIELD      FOG       63  63 100 CALM      29.81F VSB 3/4
PROVINCETOWN   MOCLDY    72  66  83 SW6       29.77F
NANTUCKET      MOCLDY    73  71  93 W7        29.79S
$$

ANZ330-335-338-340-345-350-353-355-310900-
COASTAL MARINE OBSERVATIONS


STATION/POSITION TIME  SKY/WX   TEMP    WIND        PRES    VSBY  WAVE
                                AIR SEA DIR/SP/G                  HT/PER
                 (UTC)          (F)     (DEG/KT/KT) (MB)    (MI)  (FT/S)
NY HARB ENTRANCE 0650            74 75  290/  6/  8 1009.7          3/ 9
4S FIRE IS       NOT AVBL
20S FIRE ISLAND  0650            75 74  280/  8/ 10 1009.3          3/ 6
GREAT SOUTH BAY  0730            76 81  320/ 10/ 12   N/A
23SW MTP         0750            72 71  270/  6/  6 1008.9          3/ 6
HUDSON CANYON    NOT AVBL
KINGS POINT      0700            74 71   10/  4/  6 1009.4
EXECUTION ROCKS  0700            74     280/  4/  6   N/A
CENTRAL LI SOUND NOT AVBL
EASTERN LI SOUND 0700            70 67  290/  4/  6   N/A
ROBBINS REEF     0700            75     290/  6/  6 1009.1
$$


>>>>>>>>>>>>>>>>>>>>>>>>>>>> KEY <<<<<<<<<<<<<<<<<<<<<<<<<<<
>                                                          <
>     SKY/WX - SKY CONDITION/PRESENT WEATHER               <
>     TMP    - TEMPERATURE IN FAHRENHEIT                   <
>     DP     - DEWPOINT IN FAHRENHEIT                      <
>     RH     - RELATIVE HUMIDITY IN PERCENT                <
>     WIND   - DIRECTION AND SPEED IN MPH                  <
>     PRES   - MEAN SEA LEVEL PRESSURE IN INCHES OF HG     <
>     WCI    - WIND CHILL INDEX                            <
>     VSB    - VISIBILITY IN MILES                         <
>     HX     - HEAT INDEX                                  <
>     TC     - TEMPERATURE IN CELSIUS                      <
>     VRB    - VARIABLE WIND DIRECTION                     <
>                                                          <
>>>>>>>>>>>>>>>>>>>>>>>>>>>> KEY <<<<<<<<<<<<<<<<<<<<<<<<<<<





USA.gov is the U.S. government's official web portal to all federal, state and local government web resources and services.